| time (UTC) | temp F | wind direction | speed MPH | gust MPH | rain 1hr in | rain 24hr in | rain mn in | humidity % | barometer mb |
| 20260507222333 | 57 | 10 | 5.0 | 0.0 | 0.00 | 0.00 | 0.00 | 86 | 1013.0 |
| 20260507221832 | 57 | 10 | 5.0 | 0.0 | 0.00 | 0.00 | 0.00 | 86 | 1013.0 |
| 20260507221331 | 57 | 10 | 5.0 | 0.0 | 0.00 | 0.00 | 0.00 | 86 | 1013.0 |
| 20260507220830 | 57 | 10 | 5.0 | 0.0 | 0.00 | 0.00 | 0.00 | 86 | 1013.0 |
| 20260507220329 | 57 | 10 | 5.0 | 0.0 | 0.00 | 0.00 | 0.00 | 86 | 1013.0 |
| 20260507215828 | 57 | 10 | 5.0 | 0.0 | 0.00 | 0.00 | 0.00 | 86 | 1013.0 |
| 20260507215328 | 57 | 10 | 5.0 | 0.0 | 0.00 | 0.00 | 0.00 | 86 | 1013.0 |
| 20260507214827 | 58 | 10 | 5.0 | 0.0 | 0.00 | 0.00 | 0.00 | 86 | 1013.0 |
| 20260507214326 | 58 | 10 | 5.0 | 0.0 | 0.00 | 0.00 | 0.00 | 86 | 1013.0 |
| 20260507213825 | 58 | 10 | 5.0 | 0.0 | 0.00 | 0.00 | 0.00 | 86 | 1013.0 |
| 20260507213324 | 59 | 10 | 5.0 | 0.0 | 0.00 | 0.00 | 0.00 | 85 | 1013.0 |
| 20260507212823 | 59 | 10 | 5.0 | 0.0 | 0.00 | 0.00 | 0.00 | 85 | 1013.0 |
| 20260507212322 | 59 | 10 | 5.0 | 0.0 | 0.00 | 0.00 | 0.00 | 85 | 1013.0 |
| 20260507211821 | 59 | 10 | 5.0 | 0.0 | 0.00 | 0.00 | 0.00 | 85 | 1013.0 |
| 20260507211321 | 59 | 10 | 5.0 | 0.0 | 0.00 | 0.00 | 0.00 | 85 | 1013.0 |
| 20260507210820 | 59 | 10 | 5.0 | 0.0 | 0.00 | 0.00 | 0.00 | 84 | 1013.0 |
| 20260507210319 | 59 | 10 | 5.0 | 0.0 | 0.00 | 0.00 | 0.00 | 84 | 1013.0 |
| 20260507205818 | 60 | 10 | 5.0 | 0.0 | 0.00 | 0.00 | 0.00 | 84 | 1013.0 |
| 20260507205317 | 60 | 10 | 5.0 | 0.0 | 0.00 | 0.00 | 0.00 | 84 | 1013.0 |
| 20260507204816 | 60 | 10 | 5.0 | 0.0 | 0.00 | 0.00 | 0.00 | 84 | 1013.0 |
| 20260507204315 | 60 | 10 | 5.0 | 0.0 | 0.00 | 0.00 | 0.00 | 84 | 1013.0 |
| 20260507203814 | 60 | 10 | 5.0 | 0.0 | 0.00 | 0.00 | 0.00 | 83 | 1013.0 |
| 20260507203313 | 60 | 10 | 5.0 | 0.0 | 0.00 | 0.00 | 0.00 | 83 | 1013.0 |
| 20260507202813 | 60 | 10 | 5.0 | 0.0 | 0.00 | 0.00 | 0.00 | 83 | 1013.0 |
| 20260507202312 | 60 | 10 | 5.0 | 0.0 | 0.00 | 0.00 | 0.00 | 83 | 1013.0 |
| 20260507201811 | 60 | 10 | 5.0 | 0.0 | 0.00 | 0.00 | 0.00 | 83 | 1013.0 |
| 20260507201310 | 60 | 10 | 5.0 | 0.0 | 0.00 | 0.00 | 0.00 | 83 | 1013.0 |
| 20260507200809 | 60 | 10 | 5.0 | 0.0 | 0.00 | 0.00 | 0.00 | 83 | 1013.0 |
| 20260507200308 | 60 | 10 | 5.0 | 0.0 | 0.00 | 0.00 | 0.00 | 83 | 1012.0 |
| 20260507195807 | 60 | 10 | 5.0 | 0.0 | 0.00 | 0.00 | 0.00 | 83 | 1012.0 |
| 20260507195306 | 60 | 10 | 5.0 | 0.0 | 0.00 | 0.00 | 0.00 | 83 | 1012.0 |
| 20260507194805 | 60 | 10 | 5.0 | 0.0 | 0.00 | 0.00 | 0.00 | 83 | 1012.0 |
| 20260507194305 | 61 | 10 | 5.0 | 0.0 | 0.00 | 0.00 | 0.00 | 83 | 1012.0 |
| 20260507193804 | 61 | 10 | 5.0 | 0.0 | 0.00 | 0.00 | 0.00 | 83 | 1012.0 |
| 20260507193303 | 61 | 10 | 5.0 | 0.0 | 0.00 | 0.00 | 0.00 | 83 | 1012.0 |
| 20260507192802 | 61 | 10 | 5.0 | 0.0 | 0.00 | 0.00 | 0.00 | 82 | 1012.0 |
| 20260507192301 | 61 | 10 | 5.0 | 0.0 | 0.00 | 0.00 | 0.00 | 82 | 1012.0 |
| 20260507191800 | 61 | 10 | 5.0 | 0.0 | 0.00 | 0.00 | 0.00 | 81 | 1012.0 |
| 20260507191259 | 61 | 10 | 5.0 | 0.0 | 0.00 | 0.00 | 0.00 | 81 | 1012.0 |
| 20260507190758 | 62 | 10 | 6.0 | 0.0 | 0.00 | 0.00 | 0.00 | 77 | 1011.0 |
| 20260507190257 | 62 | 10 | 6.0 | 0.0 | 0.00 | 0.00 | 0.00 | 77 | 1011.0 |
| 20260507185757 | 62 | 10 | 6.0 | 0.0 | 0.00 | 0.00 | 0.00 | 76 | 1011.0 |
| 20260507185256 | 62 | 10 | 6.0 | 0.0 | 0.00 | 0.00 | 0.00 | 76 | 1011.0 |
| 20260507184755 | 62 | 10 | 6.0 | 0.0 | 0.00 | 0.00 | 0.00 | 75 | 1011.0 |
| 20260507184254 | 62 | 10 | 6.0 | 0.0 | 0.00 | 0.00 | 0.00 | 75 | 1011.0 |
| 20260507183753 | 62 | 10 | 6.0 | 0.0 | 0.00 | 0.00 | 0.00 | 75 | 1011.0 |
| 20260507183252 | 62 | 10 | 6.0 | 0.0 | 0.00 | 0.00 | 0.00 | 75 | 1011.0 |
| 20260507182250 | 62 | 10 | 6.0 | 0.0 | 0.00 | 0.00 | 0.00 | 71 | 1011.0 |
| 20260507181749 | 63 | 301 | 5.0 | 11.0 | 0.00 | 0.00 | 0.00 | 72 | 1011.0 |
| 20260507181248 | 63 | 301 | 5.0 | 11.0 | 0.00 | 0.00 | 0.00 | 72 | 1011.0 |
| 20260507180748 | 64 | 301 | 5.0 | 11.0 | 0.00 | 0.00 | 0.00 | 72 | 1011.0 |
| 20260507180247 | 64 | 301 | 5.0 | 11.0 | 0.00 | 0.00 | 0.00 | 72 | 1011.0 |
| 20260507175746 | 64 | 301 | 5.0 | 11.0 | 0.00 | 0.00 | 0.00 | 73 | 1011.0 |
| 20260507175245 | 64 | 301 | 5.0 | 11.0 | 0.00 | 0.00 | 0.00 | 73 | 1011.0 |
| 20260507174744 | 64 | 301 | 5.0 | 11.0 | 0.00 | 0.00 | 0.00 | 74 | 1011.0 |
| 20260507174243 | 64 | 301 | 5.0 | 11.0 | 0.00 | 0.00 | 0.00 | 74 | 1011.0 |
| 20260507173742 | 64 | 301 | 5.0 | 11.0 | 0.00 | 0.00 | 0.00 | 72 | 1011.0 |
| 20260507173241 | 64 | 333 | 5.0 | 11.0 | 0.00 | 0.00 | 0.00 | 71 | 1011.0 |
| 20260507172740 | 64 | 333 | 5.0 | 11.0 | 0.00 | 0.00 | 0.00 | 71 | 1011.0 |
| 20260507172239 | 64 | 333 | 5.0 | 11.0 | 0.00 | 0.00 | 0.00 | 73 | 1011.0 |
| 20260507171739 | 64 | 333 | 5.0 | 11.0 | 0.00 | 0.00 | 0.00 | 73 | 1011.0 |
| 20260507171238 | 64 | 333 | 5.0 | 11.0 | 0.00 | 0.00 | 0.00 | 74 | 1011.0 |
| 20260507170737 | 63 | 333 | 5.0 | 11.0 | 0.00 | 0.00 | 0.00 | 76 | 1010.0 |
| 20260507170236 | 63 | 333 | 5.0 | 11.0 | 0.00 | 0.00 | 0.00 | 76 | 1010.0 |
| 20260507165735 | 64 | 320 | 4.0 | 0.0 | 0.00 | 0.00 | 0.00 | 76 | 1010.0 |
| 20260507165234 | 64 | 320 | 4.0 | 0.0 | 0.00 | 0.00 | 0.00 | 76 | 1010.0 |
| 20260507164733 | 63 | 350 | 5.0 | 10.0 | 0.00 | 0.00 | 0.00 | 76 | 1010.0 |
| 20260507164232 | 63 | 350 | 5.0 | 10.0 | 0.00 | 0.00 | 0.00 | 76 | 1010.0 |
| 20260507163731 | 63 | 350 | 8.0 | 0.0 | 0.00 | 0.00 | 0.00 | 75 | 1011.0 |
| 20260507163231 | 63 | 350 | 8.0 | 0.0 | 0.00 | 0.00 | 0.00 | 75 | 1011.0 |
| 20260507162730 | 63 | 350 | 8.0 | 0.0 | 0.00 | 0.00 | 0.00 | 75 | 1011.0 |
| 20260507162229 | 63 | 350 | 8.0 | 0.0 | 0.00 | 0.00 | 0.00 | 75 | 1011.0 |
| 20260507161728 | 64 | 308 | 3.0 | 8.0 | 0.00 | 0.00 | 0.00 | 76 | 1011.0 |
| 20260507161227 | 64 | 308 | 3.0 | 8.0 | 0.00 | 0.00 | 0.00 | 76 | 1011.0 |
| 20260507160726 | 64 | 308 | 3.0 | 8.0 | 0.00 | 0.00 | 0.00 | 76 | 1010.0 |
| 20260507160225 | 64 | 308 | 3.0 | 8.0 | 0.00 | 0.00 | 0.00 | 76 | 1010.0 |
| 20260507155724 | 63 | 106 | 12.0 | 10.0 | 0.00 | 0.00 | 0.00 | 79 | 1010.0 |
| 20260507155223 | 63 | 106 | 12.0 | 10.0 | 0.00 | 0.00 | 0.00 | 79 | 1010.0 |
| 20260507154723 | 63 | 320 | 9.0 | 0.0 | 0.00 | 0.00 | 0.00 | 77 | 1010.0 |
| 20260507154222 | 63 | 320 | 9.0 | 0.0 | 0.00 | 0.00 | 0.00 | 77 | 1010.0 |
| 20260507153721 | 63 | 320 | 9.0 | 0.0 | 0.00 | 0.00 | 0.00 | 77 | 1010.0 |
| 20260507153220 | 63 | 320 | 9.0 | 0.0 | 0.00 | 0.00 | 0.00 | 77 | 1011.0 |
| 20260507152719 | 63 | 320 | 9.0 | 0.0 | 0.00 | 0.00 | 0.00 | 77 | 1011.0 |
| 20260507152218 | 63 | 320 | 9.0 | 0.0 | 0.00 | 0.00 | 0.00 | 79 | 1011.0 |
| 20260507151717 | 63 | 320 | 9.0 | 0.0 | 0.00 | 0.00 | 0.00 | 79 | 1011.0 |
| 20260507151216 | 63 | 320 | 9.0 | 0.0 | 0.00 | 0.00 | 0.00 | 79 | 1011.0 |
| 20260507150715 | 63 | 310 | 9.0 | 0.0 | 0.00 | 0.00 | 0.00 | 84 | 1010.0 |
| 20260507150215 | 63 | 310 | 9.0 | 0.0 | 0.00 | 0.00 | 0.00 | 84 | 1010.0 |
| 20260507145714 | 63 | 310 | 9.0 | 0.0 | 0.00 | 0.00 | 0.00 | 84 | 1010.0 |
| 20260507145213 | 63 | 310 | 9.0 | 0.0 | 0.00 | 0.00 | 0.00 | 84 | 1010.0 |
| 20260507144712 | 63 | 320 | 6.0 | 0.0 | 0.00 | 0.00 | 0.00 | 84 | 1010.0 |
| 20260507144211 | 63 | 320 | 6.0 | 0.0 | 0.00 | 0.00 | 0.00 | 84 | 1010.0 |
| 20260507143710 | 63 | 320 | 6.0 | 0.0 | 0.00 | 0.00 | 0.00 | 84 | 1010.0 |
| 20260507143209 | 63 | 320 | 6.0 | 0.0 | 0.00 | 0.00 | 0.00 | 84 | 1010.0 |
| 20260507142708 | 63 | 320 | 6.0 | 0.0 | 0.00 | 0.00 | 0.00 | 84 | 1010.0 |
| 20260507142207 | 63 | 320 | 6.0 | 0.0 | 0.00 | 0.00 | 0.00 | 84 | 1010.0 |
| 20260507141707 | 64 | 320 | 6.0 | 0.0 | 0.00 | 0.00 | 0.00 | 83 | 1011.0 |
| 20260507141206 | 64 | 320 | 6.0 | 0.0 | 0.00 | 0.00 | 0.00 | 83 | 1011.0 |
| 20260507140705 | 64 | 288 | 3.0 | 8.0 | 0.00 | 0.00 | 0.00 | 82 | 1011.0 |
| 20260507140204 | 64 | 174 | 1.0 | 7.0 | 0.00 | 0.00 | 0.00 | 81 | 1010.0 |
| 20260507135703 | 64 | 174 | 1.0 | 7.0 | 0.00 | 0.00 | 0.00 | 81 | 1010.0 |
| 20260507135202 | 64 | 250 | 1.0 | 5.0 | 0.00 | 0.00 | 0.00 | 82 | 1010.0 |
| 20260507134701 | 64 | 250 | 1.0 | 5.0 | 0.00 | 0.00 | 0.00 | 82 | 1010.0 |
| 20260507134200 | 64 | 300 | 5.0 | 0.0 | 0.00 | 0.00 | 0.00 | 84 | 1010.0 |
| 20260507133659 | 64 | 300 | 5.0 | 0.0 | 0.00 | 0.00 | 0.00 | 83 | 1010.0 |
| 20260507133159 | 64 | 300 | 5.0 | 0.0 | 0.00 | 0.00 | 0.00 | 83 | 1010.0 |
| 20260507132658 | 65 | 115 | 8.0 | 13.0 | 0.00 | 0.00 | 0.00 | 82 | 1011.0 |
| 20260507132157 | 65 | 115 | 8.0 | 13.0 | 0.00 | 0.00 | 0.00 | 82 | 1011.0 |
| 20260507131656 | 66 | 115 | 8.0 | 13.0 | 0.00 | 0.00 | 0.00 | 80 | 1011.0 |
| 20260507131155 | 66 | 115 | 8.0 | 13.0 | 0.00 | 0.00 | 0.00 | 80 | 1011.0 |
| 20260507130654 | 66 | 115 | 8.0 | 13.0 | 0.00 | 0.00 | 0.00 | 79 | 1011.0 |
| 20260507130153 | 66 | 115 | 8.0 | 13.0 | 0.00 | 0.00 | 0.00 | 79 | 1011.0 |
| 20260507125652 | 66 | 115 | 8.0 | 13.0 | 0.00 | 0.00 | 0.00 | 74 | 1011.0 |
| 20260507125151 | 66 | 115 | 8.0 | 13.0 | 0.00 | 0.00 | 0.00 | 74 | 1011.0 |
| 20260507124651 | 67 | 115 | 8.0 | 13.0 | 0.00 | 0.00 | 0.00 | 74 | 1011.0 |
| 20260507124150 | 67 | 115 | 8.0 | 13.0 | 0.00 | 0.00 | 0.00 | 74 | 1011.0 |
| 20260507123649 | 67 | 115 | 8.0 | 13.0 | 0.00 | 0.00 | 0.00 | 73 | 1011.0 |
| 20260507123148 | 67 | 115 | 8.0 | 13.0 | 0.00 | 0.00 | 0.00 | 73 | 1011.0 |
| 20260507122647 | 67 | 115 | 8.0 | 13.0 | 0.00 | 0.00 | 0.00 | 73 | 1011.0 |
| 20260507122146 | 67 | 115 | 8.0 | 13.0 | 0.00 | 0.00 | 0.00 | 73 | 1011.0 |
| 20260507121645 | 67 | 115 | 8.0 | 13.0 | 0.00 | 0.00 | 0.00 | 73 | 1011.0 |
| 20260507121144 | 67 | 115 | 8.0 | 13.0 | 0.00 | 0.00 | 0.00 | 72 | 1011.0 |
| 20260507120644 | 67 | 115 | 8.0 | 13.0 | 0.00 | 0.00 | 0.00 | 73 | 1011.0 |
| 20260507120143 | 67 | 115 | 8.0 | 13.0 | 0.00 | 0.00 | 0.00 | 73 | 1011.0 |
| 20260507115642 | 67 | 115 | 8.0 | 13.0 | 0.00 | 0.00 | 0.00 | 73 | 1011.0 |
| 20260507115141 | 67 | 115 | 8.0 | 13.0 | 0.00 | 0.00 | 0.00 | 73 | 1011.0 |
| 20260507114640 | 67 | 115 | 8.0 | 13.0 | 0.00 | 0.00 | 0.00 | 73 | 1011.0 |
| 20260507114139 | 66 | 115 | 8.0 | 13.0 | 0.00 | 0.00 | 0.00 | 74 | 1011.0 |
| 20260507113638 | 66 | 115 | 8.0 | 13.0 | 0.00 | 0.00 | 0.00 | 74 | 1011.0 |
| 20260507113137 | 66 | 115 | 8.0 | 13.0 | 0.00 | 0.00 | 0.00 | 74 | 1011.0 |
| 20260507112637 | 66 | 115 | 8.0 | 13.0 | 0.00 | 0.00 | 0.00 | 74 | 1011.0 |
| 20260507112135 | 66 | 115 | 8.0 | 13.0 | 0.00 | 0.00 | 0.00 | 74 | 1011.0 |
| 20260507111635 | 66 | 111 | 7.0 | 11.0 | 0.00 | 0.00 | 0.00 | 75 | 1012.0 |
| 20260507111134 | 66 | 111 | 7.0 | 11.0 | 0.00 | 0.00 | 0.00 | 75 | 1012.0 |
| 20260507110633 | 65 | 126 | 5.0 | 11.0 | 0.00 | 0.00 | 0.00 | 76 | 1011.0 |
| 20260507110132 | 65 | 126 | 5.0 | 11.0 | 0.00 | 0.00 | 0.00 | 76 | 1011.0 |
| 20260507105631 | 65 | 68 | 8.0 | 15.0 | 0.00 | 0.00 | 0.00 | 74 | 1011.0 |
| 20260507105130 | 65 | 68 | 8.0 | 15.0 | 0.00 | 0.00 | 0.00 | 74 | 1011.0 |
| 20260507104629 | 66 | 68 | 8.0 | 15.0 | 0.00 | 0.00 | 0.00 | 73 | 1011.0 |
| 20260507104128 | 66 | 68 | 8.0 | 15.0 | 0.00 | 0.00 | 0.00 | 73 | 1011.0 |
| 20260507103627 | 66 | 68 | 8.0 | 15.0 | 0.00 | 0.00 | 0.00 | 73 | 1011.0 |
| 20260507103127 | 66 | 68 | 8.0 | 15.0 | 0.00 | 0.00 | 0.00 | 73 | 1011.0 |
| 20260507102626 | 66 | 68 | 8.0 | 15.0 | 0.00 | 0.00 | 0.00 | 74 | 1011.0 |
| 20260507102125 | 66 | 68 | 8.0 | 15.0 | 0.00 | 0.00 | 0.00 | 74 | 1011.0 |
| 20260507101624 | 66 | 68 | 8.0 | 15.0 | 0.00 | 0.00 | 0.00 | 73 | 1011.0 |
| 20260507101123 | 66 | 68 | 8.0 | 15.0 | 0.00 | 0.00 | 0.00 | 73 | 1011.0 |
| 20260507100622 | 66 | 68 | 8.0 | 15.0 | 0.00 | 0.00 | 0.00 | 73 | 1011.0 |
| 20260507100121 | 66 | 68 | 8.0 | 15.0 | 0.00 | 0.00 | 0.00 | 73 | 1011.0 |
| 20260507095620 | 66 | 105 | 7.0 | 13.0 | 0.00 | 0.00 | 0.00 | 74 | 1011.0 |
| 20260507095119 | 66 | 105 | 7.0 | 13.0 | 0.00 | 0.00 | 0.00 | 74 | 1011.0 |
| 20260507094619 | 65 | 105 | 7.0 | 13.0 | 0.00 | 0.00 | 0.00 | 75 | 1011.0 |
| 20260507094118 | 65 | 105 | 7.0 | 13.0 | 0.00 | 0.00 | 0.00 | 75 | 1011.0 |
| 20260507093617 | 65 | 105 | 7.0 | 13.0 | 0.00 | 0.00 | 0.00 | 76 | 1011.0 |
| 20260507093116 | 65 | 105 | 7.0 | 13.0 | 0.00 | 0.00 | 0.00 | 76 | 1011.0 |
| 20260507092615 | 65 | 105 | 7.0 | 13.0 | 0.00 | 0.00 | 0.00 | 77 | 1012.0 |
| 20260507092114 | 65 | 105 | 7.0 | 13.0 | 0.00 | 0.00 | 0.00 | 77 | 1012.0 |
| 20260507091613 | 64 | 105 | 7.0 | 13.0 | 0.00 | 0.00 | 0.00 | 78 | 1012.0 |
| 20260507091112 | 64 | 105 | 7.0 | 13.0 | 0.00 | 0.00 | 0.00 | 78 | 1012.0 |
| 20260507090612 | 64 | 105 | 7.0 | 13.0 | 0.00 | 0.00 | 0.00 | 78 | 1012.0 |
| 20260507090111 | 64 | 3 | 3.0 | 5.0 | 0.00 | 0.00 | 0.00 | 79 | 1012.0 |
| 20260507085610 | 64 | 3 | 3.0 | 5.0 | 0.00 | 0.00 | 0.00 | 79 | 1012.0 |
| 20260507085109 | 64 | 3 | 3.0 | 5.0 | 0.00 | 0.00 | 0.00 | 80 | 1012.0 |
| 20260507084608 | 64 | 3 | 3.0 | 5.0 | 0.00 | 0.00 | 0.00 | 80 | 1012.0 |
| 20260507084107 | 64 | 3 | 3.0 | 5.0 | 0.00 | 0.00 | 0.00 | 80 | 1012.0 |
| 20260507083606 | 64 | 3 | 3.0 | 5.0 | 0.00 | 0.00 | 0.00 | 79 | 1012.0 |
| 20260507083105 | 63 | 3 | 3.0 | 5.0 | 0.00 | 0.00 | 0.00 | 78 | 1012.0 |
| 20260507082604 | 63 | 3 | 3.0 | 5.0 | 0.00 | 0.00 | 0.00 | 78 | 1012.0 |
| 20260507082104 | 63 | 3 | 3.0 | 5.0 | 0.00 | 0.00 | 0.00 | 77 | 1012.0 |
| 20260507081603 | 63 | 3 | 3.0 | 5.0 | 0.00 | 0.00 | 0.00 | 77 | 1012.0 |
| 20260507081102 | 63 | 3 | 3.0 | 5.0 | 0.00 | 0.00 | 0.00 | 77 | 1012.0 |
| 20260507080601 | 63 | 3 | 3.0 | 5.0 | 0.00 | 0.00 | 0.00 | 77 | 1012.0 |
| 20260507080100 | 63 | 3 | 3.0 | 5.0 | 0.00 | 0.00 | 0.00 | 76 | 1012.0 |
| 20260507075559 | 63 | 3 | 3.0 | 5.0 | 0.00 | 0.00 | 0.00 | 76 | 1012.0 |
| 20260507075058 | 63 | 3 | 3.0 | 5.0 | 0.00 | 0.00 | 0.00 | 76 | 1012.0 |
| 20260507074557 | 63 | 3 | 3.0 | 5.0 | 0.00 | 0.00 | 0.00 | 76 | 1012.0 |
| 20260507074056 | 63 | 3 | 3.0 | 5.0 | 0.00 | 0.00 | 0.00 | 76 | 1012.0 |
| 20260507073556 | 63 | 3 | 3.0 | 5.0 | 0.00 | 0.00 | 0.00 | 76 | 1011.0 |
| 20260507073055 | 63 | 3 | 3.0 | 5.0 | 0.00 | 0.00 | 0.00 | 76 | 1011.0 |
| 20260507072554 | 63 | 3 | 3.0 | 5.0 | 0.00 | 0.00 | 0.00 | 76 | 1011.0 |
| 20260507072053 | 63 | 3 | 3.0 | 5.0 | 0.00 | 0.00 | 0.00 | 76 | 1011.0 |
| 20260507071552 | 62 | 3 | 3.0 | 5.0 | 0.00 | 0.00 | 0.00 | 78 | 1011.0 |